Hourly Data Report for October 18, 2014

All times are specified in Local Standard Time (LST). Add 1 hour to adjust for Daylight Saving Time where and when it is observed.

RANKIN INLET A
NUNAVUT

62°48'38.000" N
92°06'53.000" W
32.30 m
2303405
71083
YRT

Download Data

Hourly Data (October 2014)
Hourly Data Report for October 18, 2014
Temp Definition
°C
Dew Point Temp Definition
°C
Rel Hum Definition
%
Wind Dir Definition
10's deg

Wind Spd Definition
km/h
Visibility Definition
km
Stn Press Definition
kPa
Hmdx Definition


Wind Chill Definition


Weather Definition


TIME
00:00 Legend Double Dagger -8.0 -9.2 91 34 8 24.1 102.17   -12 Cloudy
01:00 Legend Double Dagger -7.7 -8.9 91 2 6 16.1 102.15   -11 Snow
02:00 Legend Double Dagger -7.3 -8.5 91 35 4 4.8 102.11   -9 Snow,Fog
03:00 Legend Double Dagger -6.8 -8.0 91 20 8 24.1 102.08   -11 Snow
04:00 Legend Double Dagger -6.6 -7.8 91 19 10 24.1 102.02   -11 Snow
05:00 Legend Double Dagger -5.9 -7.0 92 21 17 24.1 101.99   -12 Snow
06:00 Legend Double Dagger -7.1 -8.3 91 23 9 24.1 101.93   -11 Snow
07:00 Legend Double Dagger -6.7 -7.8 92 19 8 4.8 101.88   -11 Freezing Drizzle,Fog
08:00 Legend Double Dagger -5.4 -6.4 93 16 19 8.1 101.79   -12 Freezing Drizzle,Fog
09:00 Legend Double Dagger -4.7 -5.7 93 19 29 19.3 101.69   -12 Freezing Drizzle
10:00 Legend Double Dagger -4.4 -5.4 93 18 27 12.9 101.60   -12 Freezing Drizzle
11:00 Legend Double Dagger -3.8 -4.6 94 17 31 16.1 101.50   -12 LegendNANA
12:00 Legend Double Dagger -3.4 -4.4 93 19 39 24.1 101.43   -12 Cloudy
13:00 Legend Double Dagger -2.8 -4.8 86 17 34 24.1 101.37   -11 LegendNANA
14:00 Legend Double Dagger -2.0 -4.5 83 17 40 24.1 101.30   -10 LegendNANA
15:00 Legend Double Dagger -1.5 -4.2 82 18 37 24.1 101.20   -9 Cloudy
16:00 Legend Double Dagger -1.2 -3.9 82 17 37 24.1 101.12   -9 LegendNANA
17:00 Legend Double Dagger -0.9 -3.6 82 17 36 24.1 101.01   -8 LegendNANA
18:00 Legend Double Dagger -0.8 -3.7 81 17 34 24.1 100.95   -8 Cloudy
19:00 Legend Double Dagger -0.5 -3.4 81 17 43 24.1 100.84   -8 LegendNANA
20:00 Legend Double Dagger -0.3 -3.2 81 17 46 24.1 100.79   -8 Snow
21:00 Legend Double Dagger -0.2 -2.6 84 17 47 24.1 100.71   -8 Snow
22:00 Legend Double Dagger 0.2 -2.5 82 17 45 24.1 100.63     Snow
23:00 Legend Double Dagger 0.1 -2.0 86 18 49 24.1 100.55     Snow

Notes on Data Quality.

Legend

  • E = Estimated
  • M = Missing
  • NA = Not Available
  • ‡ = Partner data that is not subject to review by the National Climate Archives
Date modified: